Tracking 32571 objects as of 17-Dec-2025
HD Live streaming from Space Station
objects crossing your sky now

DELTA 1 DEB

Track DELTA 1 DEB now!
10-day predictions


NORAD ID: 15540
Int'l Code: 1976-077EU
Perigee: 1,361.1 km
Apogee: 2,308.2 km
Inclination: 102.7 °
Period: 123.3 minutes
Semi major axis: 8205 km
RCS: 0.045 m2 (small)
Launch date: July 29, 1976
Source: United States (US)
Launch site: AIR FORCE WESTERN TEST RANGE (AFWTR)

Note: This is SATELLITE DEBRIS
Your satellite tracking list
Your tracking list is empty




NASA's NSSDC Master Catalog

Two Line Element Set (TLE):
1 15540U 76077EU  25350.38681994  .00000291  00000-0  39525-2 0  9993
2 15540 102.7161 310.5751 0577065 320.9034 198.5241 11.67971708477700
Source of the keplerian elements: AFSPC